Location: Barlinek
(52.9932°N, 15.2108°E)
Time: 23:14:35
(UTC+02:00)

ISS - Visible Passes

Search period start: 22 September 2018 00:00
Search period end: 02 October 2018 00:00
Orbit: 403 x 408 km, 51.6° (Epoch: 23 September)

Date Brightness Start Highest point End Pass type
(mag) Time Alt. Az. Time Alt. Az. Time Alt. Az.
22 Sep -1.4 20:28:28 10° S 20:28:53 11° S 20:28:53 11° S visible
23 Sep -1.5 21:11:27 10° SW 21:12:21 16° SSW 21:12:21 16° SSW visible
24 Sep -2.5 20:20:01 10° SSW 20:22:43 24° SSE 20:22:54 24° SE visible
25 Sep -1.9 19:28:51 10° S 19:31:02 17° SE 19:33:12 10° ESE visible
25 Sep -2.7 21:03:49 10° WSW 21:05:59 34° SW 21:05:59 34° SW visible
26 Sep -3.1 20:12:07 10° SW 20:15:12 37° SSE 20:16:15 28° ESE visible
26 Sep -1.1 21:48:11 10° W 21:48:56 16° W 21:48:56 16° W visible
27 Sep -2.6 19:20:32 10° SSW 19:23:24 27° SSE 19:26:16 10° E visible
27 Sep -3.4 20:56:19 10° WSW 20:59:06 54° SW 20:59:06 54° SW visible
28 Sep -3.6 20:04:28 10° WSW 20:07:42 54° SSE 20:09:12 27° E visible
28 Sep -1.3 21:40:47 10° W 21:41:52 19° W 21:41:52 19° W visible
29 Sep -3.1 19:12:40 10° SW 19:15:49 42° SSE 19:18:58 10° E visible
29 Sep -3.7 20:48:51 10° W 20:51:54 67° SW 20:51:54 67° SW visible
30 Sep -3.8 19:56:55 10° WSW 20:00:12 67° S 20:01:54 26° E visible
30 Sep -1.4 21:33:20 10° W 21:34:34 21° W 21:34:34 21° W visible
01 Oct -3.7 20:41:22 10° W 20:44:32 65° SSW 20:44:32 65° SSW visible
